[Date Prev][Date Next][Thread Prev][Thread Next][Date Index][Thread Index]

[jamsat-news:1272] jas2info #188



========================   最新情報   ==============================

        Last updated :Sat.20-May.-2000  16:10 (JST) #188

====================================================================
   
  1)アマチュア通信衛星情報 FOシリーズの軌道要素、テレメトリ、
   QSOの状況等をまとめてみました.
   
   FO−29の5月20日(土)のテレメトリはJARLのホームページの
  運用予定のとうり11:06(JST)のパスではアナログ系運用になって
  おりました.CW信号でテレメトリを11:14〜11:18(JST)に
  受信できました.前回「風を切るような音」が信号音に混じりかなり大きく
  聞こえましたが今回は小さくなっており、これは一時的なものだったことが
  確認できました。
 
 AS18550C1  20May2000
 11:14-11:17(JST)

 HI HI AE C7 88 55 13 3D FF 0D 00 2E 4D 77 90 60 92 90 A0 77 BC BA BB BC B9 
 HI HI AE 07 88 55 18 3D FF 0D 00 2E 8E 9C 92 60 93 90 B0 7D BB B9 BB BC B9 
 HI HI AE 07 88 55 1D 3D FF 1E 00 2E 42 44 92 60 93 90 B0 69 BB B9 BB BC B9 
 HI HI AE C7 88 55 03 3D FF 0D 00 2E 9F 87 85 60 93 90 B0 79 BB B9 BB BC B9  
 

 ------------------------ FO-29の軌道要素 ------------------------------        
 
  ■ 軌道要素1:「jamsat−keps:993」より         
            SB KEPS @ AMSAT  $ORB00140.N
            2Line Orbital Elements 00140.AMSAT

 HR AMSAT ORBITAL ELEMENTS FOR AMATEUR SATELLITES IN NASA FORMAT
 FROM WA5QGD FORT WORTH,TX May 19, 2000
 SEND SUBSCRIBE/UNSUBSCRIBE TO majordomo@amsat.org ONLY
 BID: ORB00140.N

  DECODE 2-LINE ELSETS WITH THE FOLLOWING KEY:
  1 AAAAAU 00  0  0 BBBBB.BBBBBBBB  .CCCCCCCC  00000-0  00000-0 0  DDDZ
  2 AAAAA EEE.EEEE FFF.FFFF GGGGGGG HHH.HHHH III.IIII JJ.JJJJJJJJKKKKKZ
  KEY: A-CATALOGNUM B-EPOCHTIME C-DECAY D-ELSETNUM E-INCLINATION F-RAAN
  G-ECCENTRICITY H-ARGPERIGEE I-MNANOM J-MNMOTION K-ORBITNUM Z-CHECKSUM

  TO ALL RADIO AMATEURS BT

 FO-29
 1 24278U 96046B   00138.79351311 -.00000021  00000-0  18311-4 0 03334
 2 24278 098.5883 050.6362 0350910 305.7925 051.1061 13.52721049185188

 ■ 軌道要素2:「jamsat−keps:995」より                    
         SB KEPS @ AMSAT  $ORB00140.O
         Orbital Elements  00140.OSCAR

 HR AMSAT ORBITAL ELEMENTS FOR OSCAR SATELLITES
 FROM WA5QGD FORT WORTH,TX May 19, 2000
 SEND SUBSCRIBE/UNSUBSCRIBE TO majordomo@amsat.org ONLY
 BID: ORB00140.O
 TO ALL RADIO AMATEURS BT
 
  Satellite: FO-29
 Catalog number: 24278
 Epoch time:      00138.79351311
 Element set:    0333
 Inclination:      098.5883 deg
 RA of node:       050.6362 deg
 Eccentricity:    0.0350910
 Arg of perigee:   305.7925 deg
 Mean anomaly:     051.1061 deg
 Mean motion:   13.52721049 rev/day
 Decay rate:       -2.1e-07 rev/day^2
 Epoch rev:           18518
 Checksum:              283

-------------------  FO-29(JAS-2)のテレメトリに関する情報  ----------------------
 
 2)5月20日(土)のテレメトリの最後の行の変換例です.

  AS18550C1  20May2000
  11:14-11:17(JST)

 HI HI AE C7 88 55 03 3D FF 0D 00 2E 9F 87 85 60 93 90 B0 79 BB B9 BB BC B9  
  
 テレメトリ  	内   容	    	換算値	単 位 

  3C	磁気センサーZ軸 =	77941.2	[nT]
 3D	磁気センサX軸	=	66176.5	[nT]
 4A	太陽電池発生電流 =   	 1303.9	[mA]
 4B	B充放電電流	=	 -118.4	[mA]
 4C	B端子電圧	=	   15.8	[V]
  4D	B中間端子電圧	=	    6.9	[V]
  5A	バス電圧	        =	   17.3	[V]
  5B	JTA送信電力	=	  688.4	[mW]
  5C 	構体温度1	=	    9.3	[℃]
  5D	構体温度2	=	   10.0	[℃]
  6A	構体温度3	=	    9.3	[℃]
  6B	構体温度4	=	    8.9	[℃]
  6C	Bセル温度	=	   10.0	[℃]

 * OSはWindows 2000,Office 2000 にて計算処理.
 
 ==================================================================================

  4)JARL のホームページに運用予定が記載されていましたのでご紹介します.
       ( http://www.jarl.or.jp/Japanese/3_Fuji/new/uy.htm )

        ■ ふじ3号/FOー29/JAS-2 ■  
   
     *** 運用予定について ***   

 05月08日 〜 06月08日 アナログ系運用

 ※5月8日(月)から14日(日)迄,「デジタル系1200bpsメールボックス運用」でしたが
  地上混信が余りにも酷いため,デジタル系に切り換えることが出来ませんので,予定を変更して
  アナログ系運用と致します。

 *なお,運用予定は都合により変更することがありますのでご了承願います。

 照会先 : lab@jarl.or.jp

 最新の情報はテレホンサービス(03−3942−1000)をお聞きください。  
 以後の運用につきましては5月下旬にお知らせいたします。

-----------------------    FO−20(JAS-1b)道要素   -------------------------
  5)
  ■ 軌道要素1 :出典はFO-29「ふじ3号」に同じ.
  
  FO-20
 1 20480U 90013C   00138.89816753  .00000004  00000-0  74276-4 0 02342
 2 20480 099.0497 274.9814 0540773 123.7987 241.5785 12.83273158481399
 
  ■ 軌道要素2 :出典はFO−29「ふじ3号」に同じ.
               
  Satellite: FO-20
 Catalog number: 20480
 Epoch time:      00138.89816753
 Element set:    0234
 Inclination:      099.0497 deg
 RA of node:       274.9814 deg
 Eccentricity:    0.0540773
 Arg of perigee:   123.7987 deg
 Mean anomaly:     241.5785 deg
 Mean motion:   12.83273158 rev/day
 Decay rate:        4.0e-08 rev/day^2
 Epoch rev:           48139
 Checksum:              333

 --------------------------------------------------------------------------------
 6)[jamsat‐bb:
 
--------------------------------------------------------------------------------

         ■ ふじ2号/FO−20/JAS-1b ■      
            
          「ふじ2号」 現況                                                                                  
             
   JAS-1b(ふじ2号)のCWテレメトリ信号に,1997年10月12日12時(JST)の
 日本上空通過時,3桁の数字が繰り返されるはずが3個の長音の繰り返しとなっているという
 異常が発見されました。この不具合は次の通過時からは回復していましたが13日15時20分の
 通過時に再び観測されました。現在はA0の送信が続いています。衛星のアナログ系中継モード
 動作は異常が無く,正常時のテレメトリ内容からは衛星の動作に異常は認められません。従って,
 直ちに衛星のミッションに影響することは無いと予想されますので,当面はアナログ系中継
 モードを継続します。衛星は既に打ち上げてから7年8ヶ月を経ておりますので,今後は監視を
 強化する予定です。アマチュア各位のレポートをお待ちします。
 -------------------------------------------------------------------------------- 
  1997年10月14日 00時35分 確認のテレメトリ音 151 KB (A0) 
  1997年10月14日 11時10分 確認のテレメトリ音 216 KB (異常キーイング) 

  以上 JARLのホ−ムページの http://www.jarl.or.jp/Japanese/3_Fuji/new/fuji.htm
                                           
   =============   JAS-2 (ふじ3号)と現在までの情報   ===========
  
  A.電話によるふじ3号の運用情報
      社団法人日本アマチュア連盟によるサービス
           TEL .   03− 3942 − 1000
  B.アマチュア無線FAXサービス
      JARLによるふじ3号の軌道情報(オービットカレンダー)
         FAX No.  03− 3233 −0055
  C.WWWブラウザで情報を簡単に見れる人のためにJAS−2
     ふじ3号の衛星としての運用されるまでの名前)の概要、打ち上げ
     までの状況、運用中における状況を説明したホームページを紹介し
     ておきます.
     社団法人日本アマチュア無線連盟(JARL)のホームページ

          http://www.jarl.or.jp/Japanese/3_Fuji/jasmenu.htm
 
     宇宙開発事業団(NASDA)ホームページ 
          http://www.nasda.go.jp/
         打上げ衛星 :地球観測プラットフォーム技術衛星(ADEOS) 
                       アマチュア衛星3号(JAS-2)
          http://yyy.tksc.nasda.go.jp/Home/Press/Press-j/jas-2_j.html        

  D.JAMSATによる軌道情報の活用
        JAMSATのホームページまたはjamsat−kepsの軌道要素より
      衛星の軌道情報を得る.
     JAMSATホームページ
               URL    http://www.jamsat.or.jp
       上記ホームページでは各地で行われるアマチュア通信衛星に関する
      ミューティングのお知らせや世界のアマチュア衛星に関する情報が
      満載されています.
 ========================================================================  
     JAMSATのメンバーのご協力によりJH6MME(高山 秀造)が
    執筆・編集を担当しております.ご指摘の意見、疑問やこのようにしたら
    というアイデアがありましたら小さなことでもかまいませんので気軽に下
    記アドレスまでご連絡ください.jamsat−newsからjas2
    infoへの転載をJH4PHW局坂井さんに担当して頂いております.  
                  E-mail : jh6mme@jamsat.or.jp : jh4phw@jamsat.or.jp
 ===============================   END  ===============================